TimePDT,TemperatureF,Dew PointF,Humidity,Sea Level PressureIn,VisibilityMPH,Wind Direction,Wind SpeedMPH,Gust SpeedMPH,PrecipitationIn,Events,Conditions,WindDirDegrees,DateUTC
12:56 AM,62.1,34.0,35,29.82,10.0,WNW,3.5,-,N/A,,Clear,300,2013-10-01 07:56:00
1:56 AM,59.0,32.0,36,29.82,10.0,Calm,Calm,-,N/A,,Clear,0,2013-10-01 08:56:00
2:56 AM,59.0,34.0,39,29.82,10.0,Calm,Calm,-,N/A,,Clear,0,2013-10-01 09:56:00
3:56 AM,57.9,34.0,41,29.82,10.0,SSW,6.9,-,N/A,,Clear,200,2013-10-01 10:56:00
4:56 AM,57.9,36.0,44,29.82,10.0,Calm,Calm,-,N/A,,Clear,0,2013-10-01 11:56:00
5:56 AM,55.0,35.1,47,29.84,10.0,Calm,Calm,-,N/A,,Clear,0,2013-10-01 12:56:00
6:56 AM,55.0,36.0,49,29.86,10.0,SW,5.8,-,N/A,,Clear,220,2013-10-01 13:56:00
7:56 AM,62.1,37.0,39,29.87,10.0,Calm,Calm,-,N/A,,Clear,0,2013-10-01 14:56:00
8:56 AM,66.0,39.9,38,29.89,10.0,Calm,Calm,-,N/A,,Clear,0,2013-10-01 15:56:00
9:56 AM,71.1,41.0,34,29.89,10.0,Variable,3.5,-,N/A,,Clear,0,2013-10-01 16:56:00
10:56 AM,75.0,41.0,29,29.88,10.0,Variable,3.5,-,N/A,,Partly Cloudy,0,2013-10-01 17:56:00
11:56 AM,79.0,41.0,26,29.86,10.0,Calm,Calm,-,N/A,,Partly Cloudy,0,2013-10-01 18:56:00
12:56 PM,82.9,42.1,24,29.83,10.0,SE,8.1,-,N/A,,Partly Cloudy,130,2013-10-01 19:56:00
1:56 PM,86.0,42.1,21,29.80,10.0,ESE,5.8,-,N/A,,Partly Cloudy,110,2013-10-01 20:56:00
2:56 PM,89.1,42.1,19,29.76,10.0,East,9.2,-,N/A,,Partly Cloudy,80,2013-10-01 21:56:00
3:56 PM,91.9,39.9,16,29.73,10.0,SSW,9.2,21.9,N/A,,Partly Cloudy,210,2013-10-01 22:56:00
4:56 PM,87.1,41.0,20,29.73,10.0,SW,19.6,-,N/A,,Scattered Clouds,220,2013-10-01 23:56:00
5:56 PM,86.0,42.1,21,29.73,10.0,SW,17.3,26.5,N/A,,Scattered Clouds,220,2013-10-02 00:56:00
6:56 PM,82.0,41.0,23,29.74,10.0,South,13.8,19.6,N/A,,Scattered Clouds,190,2013-10-02 01:56:00
7:56 PM,79.0,43.0,28,29.74,10.0,SSW,20.7,27.6,N/A,,Scattered Clouds,200,2013-10-02 02:56:00
8:56 PM,77.0,44.1,31,29.75,10.0,SSW,17.3,21.9,N/A,,Scattered Clouds,200,2013-10-02 03:56:00
9:56 PM,75.0,43.0,32,29.76,10.0,SSW,9.2,-,N/A,,Scattered Clouds,200,2013-10-02 04:56:00
10:56 PM,73.0,44.1,35,29.77,10.0,South,11.5,-,N/A,,Clear,180,2013-10-02 05:56:00
11:56 PM,71.1,43.0,36,29.77,10.0,South,10.4,-,N/A,,Clear,180,2013-10-02 06:56:00